Location: Lesignano de� Bagni
(44.6500°N, 10.3000°E)
Time: 01:37:02
(UTC+00:00)

Meteor 1-25 Rocket - Pass Details

Date: 03 March 2021
Orbit: 835 x 893 km, 81.2° (Epoch: 20 April)

Event Time Altitude Azimuth Distance (km) Brightness Sun altitude
Rises 17:29:10 0° 178° (S) 3,474 7.4 -4.3°
Reaches altitude 10° 17:31:38 10° 175° (S) 2,532 6.7 -4.8°
Maximum altitude 17:37:18 62° 96° (E) 979 4.3 -5.8°
Drops below altitude 10° 17:42:56 10° 17° (NNE) 2,513 6.5 -6.8°
Sets 17:45:22 0° 14° (NNE) 3,445 7.2 -7.2°
